K7AC-13 Weather Reports


time (UTC)temp
C
wind
direction
speed
KPH
gust
KPH
rain 1hr
cm
rain 24hr
cm
rain mn
cm
humidity
%
barometer
mb
20260507214553 33 0 0.0 19.3 0.00 0.00 0.00 11 1010.5
20260507213052 33 11 3.2 54.7 0.00 0.00 0.00 12 1010.7
20260507211618 33 0 0.0 22.5 0.00 0.00 0.00 10 1010.8
20260507210053 33 0 0.0 16.1 0.00 0.00 0.00 11 1011.2
20260507204549 33 0 8.0 38.6 0.00 0.00 0.00 12 1011.3
20260507203044 32 0 3.2 43.5 0.00 0.00 0.00 12 1011.6
20260507201609 32 0 0.0 30.6 0.00 0.00 0.00 13 1011.8
20260507194556 32 0 3.2 25.7 0.00 0.00 0.00 13 1012.2
20260507193048 32 328 0.0 25.7 0.00 0.00 0.00 13 1012.5
20260507191550 32 0 0.0 19.3 0.00 0.00 0.00 13 1012.8
20260507190045 31 0 1.6 35.4 0.00 0.00 0.00 14 1013.0
20260507184543 31 0 3.2 24.1 0.00 0.00 0.00 15 1013.1
20260507183050 30 0 9.7 35.4 0.00 0.00 0.00 16 1013.3
20260507181549 30 0 0.0 16.1 0.00 0.00 0.00 16 1013.5
20260507180051 28 0 0.0 16.1 0.00 0.00 0.00 17 1013.7
20260507174549 28 0 0.0 16.1 0.00 0.00 0.00 16 1013.8
20260507173056 28 350 0.0 8.0 0.00 0.00 0.00 20 1014.1
20260507171556 27 0 0.0 6.4 0.00 0.00 0.00 20 1014.1
20260507170054 27 0 0.0 6.4 0.00 0.00 0.00 22 1014.1
20260507164544 27 0 0.0 9.7 0.00 0.00 0.00 23 1014.3
20260507163048 27 0 0.0 3.2 0.00 0.00 0.00 23 1014.4
20260507161545 27 0 0.0 9.7 0.00 0.00 0.00 23 1014.4
20260507160044 26 0 0.0 6.4 0.00 0.00 0.00 24 1014.6
20260507154544 25 0 0.0 1.6 0.00 0.00 0.00 26 1014.7
20260507153042 22 0 0.0 1.6 0.00 0.00 0.00 26 1014.7
20260507151550 22 0 0.0 1.6 0.00 0.00 0.00 28 1014.7
20260507150056 22 0 0.0 1.6 0.00 0.00 0.00 29 1014.8
20260507144546 21 0 0.0 0.0 0.00 0.00 0.00 30 1015.0
20260507143055 20 15 0.0 1.6 0.00 0.00 0.00 33 1014.9
20260507141555 18 0 0.0 0.0 0.00 0.00 0.00 35 1014.9
20260507140107 17 0 0.0 6.4 0.00 0.00 0.00 38 1014.8
20260507134550 16 0 0.0 3.2 0.00 0.00 0.00 39 1014.6
20260507133048 15 0 0.0 9.7 0.00 0.00 0.00 43 1014.4
20260507131547 14 0 0.0 1.6 0.00 0.00 0.00 44 1014.2
20260507130047 14 0 0.0 0.0 0.00 0.00 0.00 43 1014.0
20260507124552 14 0 0.0 0.0 0.00 0.00 0.00 42 1014.0
20260507123049 14 0 0.0 1.6 0.00 0.00 0.00 41 1014.1
20260507121549 15 0 0.0 0.0 0.00 0.00 0.00 42 1014.1
20260507120058 15 0 0.0 0.0 0.00 0.00 0.00 43 1014.1
20260507114545 15 0 0.0 0.0 0.00 0.00 0.00 42 1014.1
20260507113053 15 0 0.0 1.6 0.00 0.00 0.00 39 1014.0
20260507111551 16 0 0.0 1.6 0.00 0.00 0.00 43 1014.0
20260507110049 15 0 0.0 0.0 0.00 0.00 0.00 44 1014.2
20260507104550 16 0 0.0 0.0 0.00 0.00 0.00 44 1014.0
20260507103046 16 0 0.0 0.0 0.00 0.00 0.00 42 1014.2
20260507101603 16 0 0.0 0.0 0.00 0.00 0.00 43 1014.2
20260507100053 16 0 0.0 0.0 0.00 0.00 0.00 43 1014.4
20260507094556 16 0 0.0 0.0 0.00 0.00 0.00 44 1014.5
20260507093052 16 0 0.0 0.0 0.00 0.00 0.00 43 1014.5
20260507091600 16 0 0.0 0.0 0.00 0.00 0.00 42 1014.7
20260507090107 17 0 0.0 0.0 0.00 0.00 0.00 40 1014.7
20260507071548 18 0 0.0 0.0 0.00 0.00 0.00 34 1015.1
20260507070137 18 0 0.0 0.0 0.00 0.00 0.00 34 1015.0
20260507064553 19 0 0.0 0.0 0.00 0.00 0.00 33 1015.1
20260507063055 20 0 0.0 0.0 0.00 0.00 0.00 32 1015.0
20260507061552 20 0 0.0 0.0 0.00 0.00 0.00 32 1015.0
20260507060054 20 0 0.0 0.0 0.00 0.00 0.00 30 1015.0
20260507054552 21 0 0.0 0.0 0.00 0.00 0.00 30 1014.9
20260507053049 21 0 0.0 0.0 0.00 0.00 0.00 30 1014.9
20260507051546 21 0 0.0 0.0 0.00 0.00 0.00 29 1015.0
20260507050051 22 0 0.0 0.0 0.00 0.00 0.00 29 1014.9
20260507044550 22 0 0.0 0.0 0.00 0.00 0.00 29 1014.9
20260507043049 22 0 0.0 0.0 0.00 0.00 0.00 28 1014.7
20260507041552 23 0 0.0 0.0 0.00 0.00 0.00 28 1014.5
20260507040049 23 0 0.0 0.0 0.00 0.00 0.00 26 1014.3
20260507034547 23 0 0.0 0.0 0.00 0.00 0.00 25 1014.1
20260507033052 24 0 0.0 0.0 0.00 0.00 0.00 25 1014.1
20260507031550 24 0 0.0 0.0 0.00 0.00 0.00 25 1014.0
20260507030048 25 0 0.0 0.0 0.00 0.00 0.00 24 1013.8
20260507024545 25 0 0.0 0.0 0.00 0.00 0.00 23 1013.7
20260507023044 26 0 0.0 0.0 0.00 0.00 0.00 22 1013.6
20260507021543 26 0 0.0 1.6 0.00 0.00 0.00 21 1013.4
20260507020056 27 0 0.0 0.0 0.00 0.00 0.00 21 1013.4
20260507014607 27 0 0.0 6.4 0.00 0.00 0.00 20 1013.4
20260507013047 27 0 0.0 3.2 0.00 0.00 0.00 20 1013.4
20260507011545 27 0 0.0 1.6 0.00 0.00 0.00 20 1013.3
20260507010050 27 0 0.0 6.4 0.00 0.00 0.00 20 1013.4
20260507004550 27 0 0.0 25.7 0.00 0.00 0.00 20 1013.2
20260507003047 27 0 1.6 16.1 0.00 0.00 0.00 20 1013.2
20260507001558 27 0 0.0 20.9 0.00 0.00 0.00 20 1013.2
20260507000045 28 0 0.0 16.1 0.00 0.00 0.00 20 1013.1
20260506234544 28 52 3.2 30.6 0.00 0.00 0.00 20 1013.1
20260506233056 28 352 0.0 17.7 0.00 0.00 0.00 20 1013.1
20260506231542 28 314 0.0 24.1 0.00 0.00 0.00 20 1013.3
20260506230055 28 0 0.0 17.7 0.00 0.00 0.00 20 1013.4
20260506224546 28 190 0.0 17.7 0.00 0.00 0.00 20 1013.6
20260506223046 27 0 1.6 17.7 0.00 0.00 0.00 20 1013.8
20260506221545 27 0 6.4 35.4 0.00 0.00 0.00 21 1014.0
20260506220051 27 0 0.0 25.7 0.00 0.00 0.00 21 1014.1